Theta_e
316 315 315 315 315 314 314 314 313 313 312 312 312 312 313 313 313 313 314 315 315 315 315 317 317 316 315 314 314 319 325 327 328 331 335 338 333 332 331 334 335 335 345 355 356 355 355 356 358 360 360 357 355 355 356 356 356 353 353 341 335 340 341 347 357 351 350 355 356 354 353 354 355 354 353 352 351 352 352 352 354 355 357 357 358 357 355 355
316 316 316 315 315 315 314 314 313 313 312 312 312 312 313 313 314 314 314 314 315 315 315 316 317 316 315 314 314 318 325 330 334 335 337 338 333 331 334 336 336 338 349 355 354 354 353 353 356 359 358 355 352 353 354 354 354 352 347 338 338 345 345 350 352 349 353 353 353 353 352 353 354 353 352 354 355 353 354 355 354 355 357 357 357 357 355 354
316 316 316 315 315 315 314 314 314 313 313 312 313 314 315 315 315 315 315 315 315 316 315 316 317 316 315 315 315 317 327 333 336 337 338 337 334 333 336 337 337 341 350 353 351 353 353 353 357 357 356 353 350 351 353 352 352 351 346 339 341 348 347 350 350 349 353 351 352 352 352 353 352 351 351 354 356 354 355 355 354 356 357 356 357 358 355 353
316 316 316 315 315 315 315 314 314 314 313 313 314 315 317 317 317 315 315 315 315 316 315 316 317 317 315 315 315 318 330 338 335 338 338 338 336 334 337 337 338 345 350 350 350 351 352 354 356 356 354 352 350 351 352 351 351 350 346 342 344 347 345 348 350 349 350 349 351 352 352 353 350 350 350 351 354 354 353 353 354 355 356 356 356 357 356 353
316 316 316 315 315 315 315 314 314 314 313 313 315 317 318 319 319 317 316 316 316 316 315 316 316 317 314 315 316 322 333 334 333 341 337 337 337 334 338 337 339 348 350 349 349 349 352 353 354 353 353 351 351 351 350 349 350 349 346 345 346 346 344 347 349 349 350 349 351 352 352 352 351 350 350 350 353 353 350 352 353 352 355 356 355 357 356 353
316 316 316 316 315 315 315 315 314 313 313 314 317 320 320 320 320 319 318 317 317 316 315 316 316 316 314 316 318 325 332 328 336 342 334 334 336 336 338 337 342 348 348 347 348 349 351 351 351 351 350 350 350 349 349 349 350 348 346 346 347 345 346 348 349 349 350 350 351 352 351 351 350 349 349 348 351 350 348 351 353 353 355 356 356 358 355 352
316 316 316 315 315 315 315 314 314 314 313 314 318 321 321 321 321 321 321 320 319 316 316 315 316 317 314 318 323 327 330 329 337 338 331 334 335 336 338 338 342 347 346 347 348 348 348 348 349 348 346 347 346 347 348 348 349 348 346 346 347 347 347 348 350 350 350 351 352 351 351 350 349 350 349 348 349 348 347 352 354 355 357 357 356 356 355 353
316 316 316 315 315 315 314 314 314 313 313 315 319 322 322 322 322 322 323 323 321 317 316 315 317 316 314 319 327 327 328 335 337 333 331 334 335 337 339 342 344 345 346 347 347 347 346 347 347 344 343 341 341 347 350 349 348 348 347 346 348 348 348 349 349 351 353 353 353 353 352 351 349 351 350 347 347 347 349 351 352 355 357 356 354 354 354 354
316 316 316 316 315 315 315 314 314 313 313 315 320 322 322 322 323 324 324 325 324 319 316 316 317 315 315 320 325 326 329 335 334 331 333 335 336 338 342 345 345 344 346 346 347 347 346 346 343 341 340 337 338 346 350 348 347 347 347 347 349 349 349 350 350 352 353 353 355 356 356 354 349 350 350 347 346 347 349 349 350 352 353 354 353 352 353 353
316 315 315 315 315 315 314 314 314 313 313 316 321 322 322 323 323 324 324 325 326 321 316 316 317 315 317 320 321 328 333 337 338 334 334 335 340 343 345 345 344 344 346 345 347 346 346 344 341 340 340 337 336 342 347 347 345 347 347 347 350 350 351 350 350 352 351 352 355 359 360 356 351 351 350 346 346 348 349 350 350 352 351 351 352 353 354 355
315 315 314 314 314 314 314 314 313 313 313 317 322 322 322 323 323 324 324 326 325 321 317 316 316 315 319 320 320 329 335 344 348 343 340 339 343 346 346 345 343 344 344 345 346 345 345 344 342 341 339 336 335 340 346 345 344 347 346 349 350 350 351 351 352 351 351 354 352 357 362 359 355 353 352 347 347 348 348 350 350 350 351 351 352 352 353 355
314 314 314 313 313 313 313 313 313 313 314 319 322 322 322 323 323 325 326 326 324 321 320 319 317 317 320 319 321 329 334 343 349 347 347 346 344 344 344 345 344 343 344 344 344 344 344 344 343 341 338 335 336 341 342 343 345 345 346 349 351 351 353 351 353 352 353 355 352 355 356 358 363 356 351 349 347 347 347 350 350 350 351 351 352 351 353 354
313 313 313 312 313 312 313 313 313 312 315 320 322 321 322 323 325 325 327 325 323 322 322 321 318 317 319 319 321 325 331 340 341 343 350 351 348 347 347 346 344 342 343 342 341 342 341 343 342 340 338 334 336 340 340 343 344 345 345 347 349 348 350 353 353 353 354 353 353 354 340 344 364 358 350 350 347 347 349 350 350 350 352 350 352 351 351 354
314 313 312 312 312 312 312 312 313 313 316 320 321 321 322 324 325 324 325 324 322 323 322 321 319 319 319 319 319 318 325 337 336 339 348 352 348 346 347 345 344 343 343 342 341 340 341 343 342 340 339 335 337 339 342 344 342 346 344 344 346 334 338 353 353 353 356 350 353 354 334 334 357 355 350 352 347 347 348 349 349 349 352 350 352 351 350 352
316 314 313 313 312 311 311 312 312 313 317 321 321 321 322 323 324 324 323 323 324 323 322 323 322 322 322 319 321 319 322 334 338 339 344 347 343 342 344 342 342 342 342 342 341 341 342 342 340 338 336 334 337 340 344 343 343 346 334 330 338 329 334 355 352 351 356 351 353 351 335 337 352 350 350 354 350 349 347 348 348 348 351 350 351 351 349 351
319 317 315 314 313 312 311 312 312 313 317 321 321 320 321 323 324 324 324 324 324 324 324 326 324 324 323 321 323 323 324 331 333 335 339 340 337 338 340 340 341 341 341 343 341 340 341 339 337 333 332 333 336 339 338 334 334 343 333 321 327 328 330 343 349 352 352 351 354 350 340 341 349 349 351 354 351 350 348 348 348 348 349 349 350 351 350 350
320 319 318 316 314 313 311 311 312 314 318 320 320 320 321 323 325 324 324 325 324 325 326 327 326 324 324 322 322 322 324 325 323 329 337 338 334 333 337 339 341 339 340 341 337 337 337 336 332 330 332 332 335 336 328 319 319 329 331 324 326 330 327 330 343 351 350 351 354 353 350 347 348 350 351 353 351 350 349 348 348 348 348 349 349 349 350 351
320 321 320 318 317 314 312 311 312 315 318 320 320 320 320 321 323 324 326 325 325 327 326 326 325 322 322 322 321 321 323 323 322 326 330 333 333 331 333 336 337 335 336 337 332 331 332 332 331 330 332 331 334 334 321 317 319 320 323 322 323 328 329 329 337 347 350 350 351 350 352 352 350 350 353 353 351 351 351 348 347 349 348 348 349 348 349 350
321 321 321 320 319 316 314 311 312 316 318 320 319 319 322 321 323 324 325 325 325 328 327 326 326 321 320 322 322 322 322 322 323 323 325 328 330 330 330 330 332 331 331 332 330 329 329 330 329 327 328 330 333 333 327 328 330 326 326 325 322 323 327 331 337 345 348 347 350 348 346 349 348 347 354 353 352 352 352 350 348 348 348 348 348 348 349 349
319 320 320 320 320 318 315 312 313 316 317 319 319 322 325 324 326 326 324 323 323 324 324 324 325 323 323 323 323 323 322 322 322 323 325 327 329 329 328 327 330 331 331 332 330 329 329 328 327 326 328 332 333 333 334 333 333 333 330 327 326 323 324 332 338 343 345 339 340 345 343 345 344 344 352 355 353 354 353 353 351 348 348 349 349 348 349 350
315 317 318 319 319 319 316 313 313 316 316 318 320 323 324 321 324 325 321 321 322 323 322 323 324 324 324 323 324 323 322 322 323 324 325 328 329 325 325 327 330 332 332 331 329 329 328 325 325 329 330 331 331 331 332 332 332 333 329 325 324 323 325 332 335 337 343 335 332 341 343 343 344 342 349 357 356 355 352 354 354 351 348 349 349 349 349 351
311 313 315 315 317 318 317 313 313 316 317 319 320 320 319 317 320 320 319 321 323 324 323 323 323 323 323 324 324 323 322 322 322 324 325 326 327 323 324 326 328 331 332 330 330 327 325 324 327 330 330 329 329 329 329 330 331 330 329 324 319 323 327 330 334 336 339 334 333 343 341 338 345 343 348 358 356 354 352 352 355 353 350 350 351 349 350 352
311 311 312 314 315 317 318 314 313 317 319 319 318 318 317 316 317 317 318 322 324 324 323 322 322 322 323 323 324 322 321 322 321 323 325 326 326 323 323 324 324 328 329 329 329 323 319 323 328 328 328 328 328 328 329 328 328 329 327 320 317 324 324 320 328 338 339 335 335 344 340 338 344 343 347 357 356 354 353 351 354 354 352 351 351 350 351 353
310 311 311 312 313 316 317 313 314 318 319 319 317 316 316 315 317 319 320 324 325 324 323 322 322 322 323 323 323 322 321 322 322 323 324 324 325 323 322 324 324 324 327 329 329 324 321 325 328 326 326 327 326 327 328 325 323 327 329 322 320 326 325 322 328 335 335 335 341 342 328 325 334 336 342 355 356 355 354 353 353 354 354 351 352 351 351 354
310 310 311 311 312 316 315 314 318 318 319 321 317 316 316 316 318 319 322 325 323 324 324 322 323 323 323 322 322 323 323 322 322 324 325 324 324 323 323 323 323 323 325 327 327 326 325 326 326 324 325 325 325 325 326 324 320 321 328 328 326 328 328 327 330 328 321 323 337 337 317 315 327 329 339 357 358 356 357 357 356 356 357 352 352 353 353 354
308 309 311 310 311 314 316 318 319 318 322 321 317 317 317 317 317 318 325 322 316 321 324 323 324 324 322 322 323 322 321 321 322 324 325 325 324 324 323 323 324 323 324 326 327 325 325 326 325 324 324 324 324 323 325 326 319 315 325 329 329 330 328 326 326 322 314 315 333 337 319 314 320 324 343 359 357 357 359 359 358 358 359 355 353 354 354 356
306 308 309 310 310 313 319 322 319 319 323 319 316 317 317 318 317 319 323 313 311 320 324 322 323 322 321 322 323 320 317 318 322 323 325 326 325 324 322 324 324 322 326 325 320 321 325 325 323 324 324 323 322 321 325 327 318 315 325 329 327 328 327 327 324 319 317 320 329 335 327 317 314 322 347 358 352 355 359 361 361 360 359 356 354 355 356 358
304 305 307 310 310 311 317 320 320 321 319 317 317 317 317 317 318 324 319 308 312 323 323 321 321 320 321 322 322 321 319 319 321 322 324 324 324 323 322 324 324 322 326 323 314 318 326 324 323 325 323 321 321 322 326 327 321 321 327 327 325 327 326 327 323 319 321 320 316 322 327 319 313 319 343 359 349 345 351 356 360 360 360 358 355 354 355 358
303 304 306 308 309 313 315 316 320 321 317 317 317 316 318 318 321 326 316 309 317 323 321 321 320 320 321 321 321 321 321 321 321 321 323 323 322 323 321 323 324 323 324 322 318 322 324 323 323 323 322 322 323 324 325 324 323 324 325 325 325 326 326 326 324 318 318 318 312 315 320 318 314 316 327 341 336 333 338 340 349 359 360 359 357 354 354 357
302 303 305 306 311 317 316 317 321 319 317 317 314 315 320 322 323 316 309 311 319 320 321 321 321 321 322 322 322 322 320 321 322 321 323 323 322 322 322 322 323 323 324 323 322 323 323 322 323 322 322 323 323 324 323 323 323 323 323 324 323 323 326 325 324 320 315 314 314 314 317 318 315 315 320 328 329 330 333 334 347 358 357 357 358 354 354 357
302 303 304 305 310 314 315 321 322 316 317 316 314 318 322 324 321 311 308 315 318 319 322 322 322 322 322 323 323 322 321 322 322 321 323 323 322 322 322 322 321 321 320 320 321 323 324 322 323 323 323 323 323 322 323 323 323 323 323 321 316 316 320 318 317 319 315 312 314 316 319 317 313 316 324 329 330 331 333 338 347 352 354 357 356 354 354 357
303 303 304 305 308 310 313 318 318 314 317 316 316 321 321 317 314 310 312 316 314 317 322 322 323 323 322 323 323 322 322 321 322 322 323 322 323 323 321 321 321 316 312 314 317 320 322 324 324 324 323 323 322 320 321 322 322 323 321 316 310 309 312 312 311 314 313 312 315 320 320 316 313 320 328 332 332 337 345 346 346 346 350 354 353 353 355 356
303 303 304 305 307 309 311 313 314 314 317 318 318 322 318 312 310 311 314 315 313 319 323 322 323 323 322 321 322 323 322 321 322 322 323 323 323 324 322 323 324 318 312 313 313 312 315 322 323 323 322 323 323 318 315 317 320 321 316 312 309 308 309 311 311 311 312 311 315 322 322 314 313 322 331 333 336 344 348 347 346 346 349 352 351 352 354 357
303 303 304 306 308 310 312 313 315 316 318 319 319 319 316 311 312 314 316 317 318 321 322 321 321 321 321 321 322 323 321 320 322 322 322 323 321 321 322 323 323 323 320 315 313 311 309 313 319 322 321 322 324 321 318 320 321 321 322 318 311 309 309 310 310 309 310 310 313 320 319 312 311 320 330 335 340 345 345 345 347 348 349 350 350 352 354 357
304 306 308 313 315 316 316 316 317 318 319 320 317 317 313 309 312 316 317 319 321 322 321 321 321 320 320 322 323 323 321 320 322 322 323 322 320 320 322 323 323 324 321 314 313 314 308 310 320 323 322 323 323 322 324 323 319 321 325 319 311 313 313 309 309 310 310 309 311 314 315 315 319 325 330 337 341 347 346 346 349 350 352 352 352 355 356 357
308 312 315 320 322 320 319 317 317 319 319 319 315 314 312 313 316 317 319 322 321 321 321 318 320 318 315 319 322 323 322 321 323 322 321 322 322 322 323 324 324 324 321 316 315 315 308 310 322 324 321 324 323 323 326 320 317 320 319 313 316 322 319 310 308 311 310 308 310 311 311 316 321 324 332 343 346 349 349 347 351 353 354 353 355 357 357 359
314 317 319 322 322 320 319 316 319 320 319 316 314 313 315 318 318 318 322 322 319 321 319 314 316 316 312 314 318 322 321 321 322 320 318 320 321 322 324 324 324 323 323 321 318 319 313 311 320 324 320 322 322 322 324 323 322 318 314 316 322 323 321 314 309 310 310 309 310 310 309 312 311 315 330 344 345 350 353 350 353 354 354 354 357 358 359 360
317 319 321 323 320 318 318 316 319 321 316 314 316 317 319 319 317 318 321 320 318 321 319 313 316 318 315 313 315 322 321 317 319 319 317 318 318 321 325 324 324 324 324 323 320 322 319 310 316 325 321 320 323 320 319 321 324 321 317 322 321 313 312 312 309 309 310 309 309 309 310 310 309 313 322 331 341 353 356 354 355 353 354 357 360 359 360 359
319 320 322 322 318 318 317 317 320 319 313 314 315 317 320 319 318 319 320 321 319 319 319 317 318 319 318 317 317 321 321 317 320 319 316 317 318 320 324 323 323 324 323 324 322 323 323 312 311 321 323 321 321 318 314 315 321 322 321 323 322 316 312 312 311 310 309 309 309 309 310 310 314 322 324 333 350 358 356 357 356 354 358 361 361 359 358 357
318 317 319 320 318 317 317 318 320 317 313 314 314 316 318 318 319 319 319 320 320 319 320 320 320 320 319 320 319 320 321 319 321 319 317 319 318 319 323 323 323 324 322 324 324 322 323 316 310 317 322 318 316 318 317 317 319 318 316 316 316 317 317 315 314 311 310 309 309 310 309 309 324 345 347 350 359 359 359 361 358 358 361 361 359 357 356 355
316 316 318 319 318 318 319 320 319 316 314 315 315 316 317 317 318 319 319 319 319 319 320 319 321 320 319 320 319 320 322 321 321 320 320 321 318 319 323 323 322 323 322 322 324 322 321 318 312 312 314 312 315 323 324 322 322 320 317 316 316 316 314 311 311 311 311 309 308 311 308 312 338 361 358 358 361 361 362 361 360 361 360 358 357 355 354 354
317 316 318 319 318 320 321 319 317 317 314 314 316 316 318 318 317 317 318 318 318 318 319 319 320 320 320 320 319 320 321 321 321 321 320 321 322 321 322 323 323 322 322 322 323 323 323 321 314 310 314 317 321 325 323 322 324 324 322 322 322 320 313 308 308 310 310 309 310 311 307 317 352 365 359 362 362 359 361 360 361 360 357 357 355 353 353 353
315 314 317 318 318 320 321 319 318 318 316 316 317 316 316 317 316 317 317 317 317 317 317 318 319 319 320 319 320 321 321 320 321 322 322 323 324 323 323 323 322 322 323 322 322 324 323 321 314 310 316 322 324 326 324 324 324 321 321 324 323 321 318 316 314 314 312 309 310 311 307 320 354 365 361 363 361 358 360 359 359 357 354 356 354 353 354 353
312 312 316 318 319 320 320 319 319 318 317 316 316 316 315 316 316 317 317 316 317 317 316 318 318 318 319 319 319 320 319 317 320 322 323 323 323 323 323 321 322 323 323 324 326 323 319 318 315 310 311 314 316 320 320 320 322 321 322 324 323 324 324 321 320 318 313 309 311 311 307 320 353 364 360 361 360 358 358 355 355 355 353 353 353 354 355 354
314 314 314 316 319 319 318 319 320 319 318 316 316 316 315 315 316 316 317 316 316 317 317 317 318 318 318 319 318 320 319 317 318 321 323 322 323 324 322 321 323 322 322 332 336 325 319 322 319 311 309 309 310 313 314 317 321 322 325 326 324 324 323 319 316 312 311 313 315 311 308 324 358 369 360 361 362 359 358 355 353 353 352 352 354 354 354 355
317 318 316 315 316 317 318 319 319 319 320 318 317 317 315 315 315 315 317 317 316 317 317 317 318 317 317 318 317 318 319 319 319 321 322 322 323 323 323 323 322 323 331 341 337 326 323 328 324 316 312 312 312 316 323 325 320 318 323 327 326 327 325 322 315 310 313 314 312 314 317 321 339 359 362 362 363 361 360 356 353 353 352 352 355 354 353 355
315 317 319 318 317 316 317 318 317 318 319 320 319 318 316 316 316 315 315 315 316 317 316 316 317 317 317 318 318 318 319 320 321 321 322 323 323 323 326 324 320 327 339 338 329 327 325 321 321 322 319 319 322 324 329 329 322 318 321 324 326 329 328 322 315 315 319 313 310 327 337 323 326 349 360 360 365 364 360 357 355 354 352 352 354 353 354 354
313 316 320 320 319 318 318 318 318 317 318 320 319 319 318 316 316 317 316 315 315 316 316 317 317 317 317 317 317 318 319 320 321 322 323 324 324 324 327 328 322 326 335 329 323 330 324 317 321 323 320 323 327 328 329 331 328 327 325 324 325 327 325 321 318 323 327 317 316 336 343 330 334 350 357 360 365 363 359 357 354 353 352 353 354 353 354 354
314 314 316 317 318 321 320 320 320 319 319 319 320 320 319 317 316 317 316 315 315 315 315 316 316 316 317 317 317 318 318 316 317 323 325 324 326 325 327 329 326 326 330 326 325 330 324 320 326 324 319 323 329 331 333 332 328 327 328 329 329 327 326 326 327 333 334 328 333 344 340 338 347 353 360 365 363 359 358 355 354 354 353 354 355 355 354 352
315 315 316 317 318 320 321 320 320 320 319 319 320 320 319 318 317 316 316 316 316 316 315 315 316 317 317 318 317 318 319 318 318 322 323 323 325 326 326 326 326 326 326 324 326 328 324 324 331 325 318 320 328 331 331 330 327 324 326 331 333 330 329 331 332 336 334 331 340 343 333 339 354 360 364 365 361 360 359 356 357 356 353 353 355 354 353 352
315 316 317 318 318 320 321 321 321 321 320 319 319 320 320 319 318 318 318 317 315 316 316 314 315 316 317 318 318 318 319 319 320 320 321 323 324 324 324 324 324 324 325 325 326 326 326 327 330 325 314 314 325 328 326 329 328 320 321 327 329 327 328 331 334 336 334 332 333 328 324 337 359 364 365 365 362 361 360 358 358 355 353 352 351 352 354 352
313 315 316 317 319 320 320 321 322 322 322 320 318 319 319 320 320 321 321 320 317 316 318 318 317 316 317 317 318 319 320 320 322 321 322 323 323 323 323 323 324 323 324 327 326 327 331 328 324 320 312 312 324 328 325 324 318 314 320 327 330 332 332 333 335 340 343 338 330 325 330 348 362 362 362 364 363 361 361 360 357 355 355 351 349 352 353 351
Wind_Speed
18 19 19 20 20 21 21 22 22 22 22 22 21 20 19 18 17 17 16 16 16 16 15 15 14 15 14 14 14 9 5 6 8 11 7 5 8 8 10 17 22 25 22 18 17 16 13 11 9 10 7 4 3 0 1 3 3 3 1 4 5 5 6 3 3 3 4 9 9 10 10 6 7 6 5 5 5 5 7 5 5 6 6 7 10 16 19 17
18 19 20 20 21 21 22 22 22 22 22 22 21 20 19 18 17 16 16 15 15 15 15 14 14 14 13 13 13 8 2 4 7 9 8 4 6 10 12 18 23 25 21 18 18 15 11 10 11 11 6 3 2 1 1 1 2 2 3 6 6 7 7 4 4 4 2 7 9 10 9 6 6 8 6 6 6 6 7 7 7 7 7 8 11 16 18 17
19 20 21 21 22 22 22 23 23 23 23 22 22 21 19 18 17 16 15 15 15 14 14 14 13 13 12 12 12 8 1 6 7 4 6 6 6 10 14 18 22 23 19 16 15 10 6 8 12 10 5 2 1 1 1 1 1 3 3 6 7 5 6 4 4 4 2 7 10 10 8 6 6 7 6 6 6 7 7 6 8 9 9 9 12 15 17 17
19 20 21 22 22 22 23 24 24 24 23 23 22 20 19 17 16 16 15 15 14 13 13 13 12 12 12 11 11 7 2 7 3 4 5 6 7 11 14 17 22 20 12 11 11 5 3 8 11 8 4 1 3 1 0 2 2 3 4 7 7 3 6 5 4 4 2 6 8 9 8 7 7 6 6 6 5 6 7 7 7 8 11 11 13 15 16 17
20 21 22 22 23 23 24 24 24 24 24 23 22 20 19 17 16 15 15 14 13 12 11 12 12 11 11 11 9 5 4 5 4 5 5 6 7 13 15 18 22 16 9 10 9 5 6 9 8 6 4 1 3 2 3 3 2 2 5 7 6 3 6 5 4 5 4 6 7 8 8 6 7 7 7 7 5 2 2 6 7 7 11 12 14 15 16 16
20 21 22 23 23 24 24 25 25 25 25 24 22 20 19 18 17 16 15 14 13 11 10 10 11 11 10 9 6 3 6 1 5 3 6 6 9 14 16 20 21 12 9 12 9 7 7 8 7 4 3 1 2 2 5 3 3 1 6 5 4 5 6 6 5 5 5 7 7 7 5 6 7 7 7 8 5 4 6 4 7 7 10 12 14 15 15 15
21 22 22 23 24 25 25 25 25 25 25 24 22 20 19 18 17 15 14 13 11 10 8 8 9 10 10 7 3 4 6 1 4 5 7 8 11 16 18 22 20 12 11 12 10 8 7 8 6 3 3 1 2 3 5 4 2 2 5 5 4 5 6 6 5 5 5 5 5 4 4 6 7 4 5 8 6 5 7 5 7 8 11 12 13 14 15 15
21 22 23 23 24 25 25 25 25 25 25 24 22 21 19 18 17 15 13 12 10 8 7 7 7 9 9 4 3 5 4 4 4 8 10 11 15 18 20 21 17 12 12 12 10 8 6 7 4 4 3 3 3 2 5 5 3 1 5 5 4 5 6 6 5 6 5 3 3 3 4 5 5 1 3 7 6 7 7 6 7 10 11 11 11 13 13 14
21 22 23 24 24 25 24 25 25 25 25 24 22 21 20 18 15 13 12 11 9 7 6 6 6 7 7 4 5 5 1 4 3 10 12 14 18 21 21 18 16 14 12 11 9 7 6 4 1 4 5 4 3 1 5 4 1 3 4 4 5 6 6 6 6 7 5 4 3 4 3 3 3 2 4 8 7 7 7 6 8 11 12 11 11 12 12 12
21 23 23 24 25 25 25 24 25 25 25 24 22 21 20 17 14 12 11 10 7 6 5 5 6 6 5 5 7 5 3 4 5 12 14 17 20 23 20 14 17 16 11 10 10 8 6 4 3 5 6 2 3 1 4 3 3 5 5 5 5 5 6 5 5 7 5 5 5 5 3 3 3 3 4 7 8 8 8 8 9 11 12 12 11 11 12 12
22 23 24 25 25 25 25 24 24 25 24 23 21 21 19 15 13 12 10 7 5 4 4 4 5 4 4 5 8 3 5 4 9 14 16 19 21 23 20 14 17 16 10 8 9 9 8 7 6 5 3 3 4 1 2 0 4 6 7 6 6 5 5 5 5 7 5 5 7 5 4 4 4 6 5 6 10 9 9 9 11 11 10 11 11 11 10 11
22 23 24 25 25 25 25 24 24 24 24 22 21 21 18 14 13 12 9 3 2 3 3 3 3 3 3 6 6 1 7 5 11 15 17 19 18 17 16 13 16 15 10 7 7 7 9 9 8 7 5 7 4 1 1 2 3 6 6 5 7 6 5 7 6 7 6 4 7 5 4 6 8 9 5 7 10 10 10 10 11 10 9 10 11 10 10 11
22 23 24 25 25 25 25 24 24 24 23 21 21 20 15 12 10 9 5 2 2 3 3 4 3 2 4 5 1 4 5 6 10 14 16 16 12 11 11 10 13 14 10 9 7 6 8 9 9 10 8 8 3 2 1 4 4 5 5 3 5 6 6 9 8 7 7 4 8 6 3 2 8 11 7 9 10 10 11 11 10 9 9 10 11 10 10 12
22 23 24 25 25 25 25 24 23 23 22 20 21 19 13 9 7 6 4 3 3 4 4 3 3 1 5 1 4 2 3 7 9 13 16 14 10 9 11 10 10 12 11 11 10 8 10 9 9 10 7 6 2 2 4 5 5 4 3 3 4 3 3 10 9 9 8 5 8 7 4 2 5 10 10 9 10 11 11 11 11 10 9 10 10 11 11 12
22 23 23 24 25 25 24 23 23 22 20 20 20 18 12 6 4 3 3 4 5 5 5 3 2 2 5 2 4 1 2 7 10 13 15 15 13 10 11 12 11 12 11 11 11 8 9 8 8 7 3 2 2 5 5 4 4 3 3 3 3 2 3 10 10 11 9 6 9 8 4 2 3 8 12 12 10 11 10 11 12 11 11 11 10 11 10 11
22 22 23 24 25 25 24 23 22 20 18 19 20 18 12 6 4 3 3 4 6 6 4 2 1 3 6 1 5 3 3 6 8 12 15 15 14 8 9 13 11 11 11 9 8 7 8 6 6 7 4 3 5 5 5 4 4 4 4 3 1 2 1 5 8 11 10 6 9 10 6 4 2 7 12 14 12 12 10 10 12 12 12 12 10 10 10 10
22 22 23 24 24 25 24 22 21 19 18 18 19 17 11 6 5 5 4 4 6 5 3 3 1 3 4 2 5 4 4 5 5 9 14 14 13 8 7 10 8 8 9 9 7 6 6 5 4 5 5 5 5 5 5 5 4 3 3 3 2 4 4 1 6 10 11 8 9 11 10 9 3 8 11 14 14 12 10 11 12 12 12 12 10 10 10 11
22 23 23 24 24 25 24 22 20 18 17 18 19 16 10 7 6 6 5 5 6 3 2 2 2 4 3 5 3 2 4 4 4 6 10 11 12 11 9 8 6 7 8 7 6 6 7 5 5 6 6 6 5 5 7 5 4 4 4 4 3 4 4 3 2 7 11 10 9 9 11 14 9 8 10 12 14 13 11 10 11 12 12 12 11 11 11 11
22 23 24 24 24 25 24 21 17 16 18 17 17 13 7 6 5 4 4 4 4 5 2 2 5 4 1 4 1 2 3 2 3 6 9 10 10 11 11 9 6 7 8 6 8 8 6 5 6 7 7 8 8 9 9 6 6 8 8 7 7 5 4 4 2 7 8 8 9 10 11 13 10 7 10 12 13 12 11 10 10 11 12 12 12 11 11 12
21 23 23 24 24 24 25 20 15 14 17 17 15 9 4 4 3 3 2 5 7 7 7 4 6 7 3 1 1 0 3 5 6 7 9 9 10 11 11 9 8 9 9 8 8 6 4 7 8 8 10 10 9 8 7 8 7 10 10 8 8 7 5 5 2 6 5 6 7 8 11 14 13 7 9 13 13 12 13 12 12 12 12 12 12 13 13 12
21 22 23 24 23 24 24 18 13 12 13 15 12 4 2 4 3 1 4 6 6 6 10 9 8 10 8 3 3 2 1 5 8 7 8 9 10 10 9 10 11 9 10 12 7 2 4 9 10 12 12 7 5 5 5 7 8 10 10 8 8 7 6 6 3 4 4 6 6 7 10 13 13 9 7 13 14 14 14 14 14 15 13 12 13 14 13 11
20 22 23 24 23 23 23 15 10 10 10 12 11 7 6 6 5 4 4 6 5 4 8 9 8 10 10 8 4 2 3 5 8 9 9 9 11 10 9 11 13 11 10 10 7 5 8 11 15 13 6 3 4 6 7 9 10 10 9 9 8 7 7 6 0 3 4 4 5 6 9 13 13 10 7 13 14 12 14 15 14 15 15 13 13 14 13 12
21 21 22 24 22 23 21 12 8 9 10 12 12 10 6 6 5 4 4 6 5 4 6 7 9 10 9 8 6 6 8 8 9 10 13 11 10 10 9 10 13 14 11 11 10 10 9 8 10 8 3 5 9 8 9 10 9 10 9 9 8 7 7 5 3 4 4 4 6 7 8 11 11 7 6 12 14 11 13 15 14 14 15 15 15 14 14 15
21 21 22 24 22 22 18 8 7 10 8 9 10 9 7 7 4 4 5 5 5 3 3 4 5 7 6 3 4 9 10 7 7 6 13 14 8 7 10 11 13 14 12 13 14 14 13 4 2 1 2 8 11 10 10 10 9 12 12 11 10 10 9 8 4 1 4 6 4 6 8 8 6 5 5 9 12 11 12 13 14 14 14 15 15 14 15 15
21 21 22 23 22 22 14 2 7 10 4 4 7 6 9 10 4 5 5 5 5 3 3 4 3 4 2 1 4 7 6 6 7 5 10 14 8 6 7 7 9 12 14 16 13 12 15 6 4 3 6 7 10 10 10 10 10 12 13 12 13 14 13 13 10 6 7 6 4 3 7 6 6 8 4 6 9 10 11 13 15 14 14 15 15 15 15 15
20 20 22 23 23 21 8 2 7 11 3 3 4 7 11 12 4 6 4 4 5 2 4 5 4 3 3 3 5 5 4 6 6 4 7 10 8 5 5 5 5 9 10 11 8 7 10 6 4 9 11 11 12 11 10 10 9 10 10 10 11 13 13 12 11 7 8 6 2 2 7 7 7 9 3 4 6 9 10 13 14 14 14 15 15 14 15 15
20 19 22 21 22 21 8 2 11 10 1 2 7 11 13 12 3 6 4 5 4 1 3 3 2 3 2 3 6 5 3 3 5 6 7 7 7 5 6 7 6 5 3 4 6 6 8 9 9 11 13 13 12 11 10 9 9 10 6 5 8 10 10 11 10 9 9 8 3 5 5 7 8 6 2 3 5 7 10 13 14 14 15 16 16 15 16 16
19 19 21 20 20 19 8 7 12 6 2 6 10 13 14 8 3 5 5 6 3 1 2 2 2 3 1 2 7 6 1 1 4 6 6 6 6 5 9 9 8 8 7 6 7 4 6 11 11 12 12 11 10 11 9 9 10 11 5 4 7 8 8 9 9 9 9 8 7 6 3 6 9 5 3 6 6 7 7 9 12 15 16 16 17 17 17 17
20 19 19 20 20 14 9 10 9 4 7 11 12 14 11 2 5 3 5 5 2 2 1 2 3 4 4 4 7 7 2 1 1 4 7 7 5 4 6 7 7 8 9 10 10 2 3 3 4 7 9 8 9 9 8 9 10 9 7 6 6 6 7 8 8 9 8 7 10 11 5 5 9 7 4 7 6 7 7 5 7 13 16 16 16 17 17 16
20 19 19 21 17 10 11 10 5 5 12 13 13 12 6 4 4 6 7 5 1 2 2 2 2 3 5 6 7 8 7 2 2 5 7 7 7 5 2 2 5 6 7 10 12 8 2 1 0 6 8 6 6 5 5 9 11 6 5 7 7 7 7 6 6 7 8 9 11 13 8 6 9 9 6 6 7 9 8 5 2 8 13 15 15 15 16 15
20 19 18 19 15 10 11 5 1 9 14 13 12 8 4 5 3 8 7 2 2 3 4 4 4 4 5 4 4 8 9 5 4 8 8 6 8 8 4 3 4 6 7 8 10 12 10 7 5 7 9 8 7 6 5 7 8 6 6 8 8 7 6 6 7 5 8 11 9 7 8 10 10 8 7 9 12 12 8 5 3 3 9 12 13 14 15 14
21 19 17 16 14 12 10 5 7 14 12 11 10 5 5 5 6 8 5 2 2 4 3 3 5 4 3 4 4 7 9 7 6 9 10 9 8 8 9 8 6 7 8 7 9 11 10 11 11 9 9 10 9 8 7 7 7 7 7 7 8 7 6 7 8 6 8 10 6 3 6 9 9 9 11 13 13 8 4 4 4 3 4 10 11 12 13 13
21 20 17 14 14 14 13 12 12 12 9 9 7 5 6 7 8 9 8 5 1 1 1 2 3 2 3 5 4 6 7 7 8 8 9 10 9 9 12 11 8 8 7 5 6 7 8 10 13 12 9 11 12 9 6 7 7 8 8 7 7 7 7 8 7 7 9 7 3 3 4 7 9 8 10 10 7 4 4 4 4 3 2 7 9 11 12 13
21 18 16 14 14 13 11 10 9 8 7 7 5 6 9 10 8 8 11 8 2 2 2 2 2 4 6 4 1 4 7 7 9 8 8 10 9 8 11 12 12 10 7 5 5 6 7 5 8 10 7 9 14 13 10 7 6 8 9 8 8 7 7 8 6 6 7 5 3 5 4 7 7 6 7 4 2 3 3 4 4 2 2 5 7 10 12 13
19 16 14 11 10 7 5 6 6 6 6 5 6 8 11 10 7 7 9 6 4 2 3 2 3 6 6 4 2 4 4 4 9 9 7 9 8 8 9 10 13 12 8 7 5 5 8 7 4 6 3 6 12 13 13 11 7 6 7 8 9 8 7 7 7 7 7 6 3 5 5 7 7 8 7 3 1 2 3 4 4 4 4 5 7 9 10 11
17 13 10 6 3 3 4 6 5 5 6 6 8 9 10 8 5 5 3 2 3 3 3 4 6 7 6 4 4 5 2 2 7 9 7 9 9 10 10 8 11 14 10 7 4 4 7 5 4 6 4 8 9 7 11 12 7 3 6 9 7 6 7 7 7 6 7 9 6 5 7 6 6 7 2 2 1 2 4 5 5 5 5 6 6 7 8 9
15 12 7 4 2 3 6 7 3 5 6 6 9 9 9 7 4 1 1 1 2 2 5 7 5 4 6 4 4 6 5 4 7 7 6 8 7 9 12 10 10 14 15 11 7 5 6 5 3 6 6 7 4 3 7 10 7 3 4 6 5 4 6 6 5 5 6 8 6 4 7 7 5 4 1 3 1 3 5 5 5 5 5 6 6 6 7 9
14 11 5 3 4 6 6 4 4 6 5 6 10 9 8 7 3 0 1 2 2 3 7 8 3 1 5 4 2 5 5 6 8 7 6 6 5 6 10 10 10 14 17 14 8 4 4 7 3 4 3 6 6 5 6 7 10 8 4 1 3 5 6 6 6 6 6 7 6 4 5 6 5 4 3 2 4 5 5 4 3 4 5 5 5 7 8 9
12 8 2 2 6 6 4 4 6 6 6 7 10 9 8 7 4 1 1 2 2 4 7 6 2 2 4 3 1 3 5 4 6 7 6 5 4 4 7 8 8 13 16 15 10 4 4 6 2 5 4 5 7 7 7 7 11 10 7 5 5 4 4 3 5 6 6 6 6 4 4 5 2 3 5 6 6 5 4 3 2 3 5 5 6 8 8 9
8 5 1 5 6 1 7 7 6 6 7 8 9 7 6 7 6 4 2 2 3 4 4 3 2 3 3 2 2 1 3 4 4 5 4 5 4 4 7 7 6 8 11 14 11 6 4 6 3 5 6 5 7 7 6 4 8 10 8 8 7 4 4 3 4 5 6 6 5 4 5 4 3 5 5 5 6 5 5 2 2 4 5 5 7 7 7 8
5 3 2 5 5 3 5 6 6 6 7 8 9 8 5 4 5 6 4 3 4 3 2 3 3 2 2 2 2 0 2 4 5 5 4 5 6 4 6 6 5 6 8 10 11 7 5 5 5 4 5 4 4 4 4 5 4 8 9 9 9 7 5 5 5 5 5 6 5 5 7 3 3 3 4 5 5 4 4 2 3 5 6 6 7 7 7 7
5 3 3 4 1 2 3 6 5 5 7 7 7 6 3 1 4 6 6 6 6 4 3 4 4 4 3 3 2 2 3 5 5 5 4 4 5 3 3 4 5 7 7 7 9 9 5 4 6 5 5 3 4 4 2 5 6 8 7 8 9 8 8 7 6 5 5 5 5 5 7 3 4 2 3 3 4 4 4 2 5 6 6 7 6 6 6 7
4 2 2 3 3 4 5 7 6 5 8 6 3 4 3 3 6 6 6 8 8 6 6 5 4 5 4 2 3 2 2 4 5 5 4 3 3 2 2 2 5 7 8 7 8 8 4 4 6 5 5 4 2 3 2 3 7 8 7 8 8 8 8 7 4 3 3 4 4 5 7 2 3 2 1 2 2 4 4 4 6 6 6 6 6 6 6 6
3 4 2 3 3 5 6 6 6 7 9 7 6 6 5 5 7 7 7 9 8 7 9 8 6 6 4 2 4 4 3 3 4 4 4 3 1 3 2 3 6 7 8 5 5 8 6 5 6 5 5 5 5 5 5 5 6 6 4 6 7 7 7 6 3 3 4 5 5 7 6 1 3 2 1 3 3 4 6 6 6 6 6 6 6 6 6 6
4 4 3 4 5 6 5 4 4 5 8 10 9 9 9 6 7 8 8 8 8 7 8 7 5 5 4 4 5 6 6 6 5 4 4 4 2 1 1 4 6 10 9 1 1 6 6 4 6 6 6 5 5 3 3 4 5 3 3 6 8 8 8 6 4 5 6 3 4 8 6 1 4 4 3 3 3 4 6 6 6 6 6 5 6 7 7 7
3 2 3 5 6 6 5 4 4 5 5 8 8 9 11 10 8 8 9 8 8 7 6 5 4 5 7 7 8 8 8 9 7 6 6 6 5 3 2 3 7 10 5 3 3 7 5 4 7 9 7 3 2 3 4 1 3 4 4 5 7 8 9 7 6 6 4 3 5 6 7 5 1 4 4 3 4 4 5 6 6 6 6 6 6 7 7 8
3 2 1 2 3 5 6 5 6 6 3 4 5 6 10 11 8 8 10 9 7 8 8 7 6 7 8 8 8 8 7 8 8 8 9 7 6 7 1 3 4 6 4 4 9 8 4 6 9 11 9 4 5 4 2 3 3 2 3 5 6 7 8 9 7 4 3 6 6 2 4 7 5 6 7 5 5 5 5 5 5 6 6 6 7 8 8 9
3 2 1 2 1 4 4 3 5 7 5 4 4 4 8 13 11 9 9 9 8 7 8 8 10 11 10 7 5 6 6 7 7 7 7 5 6 8 2 4 4 5 6 7 10 6 5 7 8 9 8 3 2 3 2 3 2 2 4 4 5 7 9 9 7 4 3 6 4 4 3 5 5 8 8 7 6 6 7 6 6 7 7 7 7 8 8 8
2 3 1 1 3 2 2 1 2 5 7 6 5 6 9 12 13 11 8 8 10 10 9 10 12 14 14 11 8 7 7 7 6 4 3 5 8 8 3 3 7 7 6 6 7 5 5 3 6 8 7 4 3 4 4 4 4 4 4 3 5 6 6 6 4 1 2 3 3 3 3 3 6 7 7 8 7 7 8 7 7 8 7 7 7 7 8 8
2 3 1 2 4 3 4 3 3 5 7 7 6 8 9 10 11 11 9 9 10 10 12 14 13 11 10 11 10 10 10 8 8 6 6 8 7 6 4 3 4 3 2 4 6 5 4 2 5 7 7 5 5 5 5 6 5 5 4 3 4 5 5 4 2 1 3 3 1 3 5 2 5 5 6 7 7 8 8 7 7 7 7 8 7 8 9 9
3 3 3 4 4 3 4 4 4 5 6 7 8 8 9 11 11 9 8 10 11 9 10 14 16 11 8 9 11 12 11 9 11 11 10 10 8 6 4 4 6 6 4 4 7 7 5 3 5 7 7 6 5 6 6 5 5 5 5 5 6 5 3 2 1 0 3 4 4 6 5 3 4 4 6 7 7 7 8 7 7 7 8 8 8 9 10 12
3 3 3 4 4 3 4 4 5 5 5 6 9 9 9 10 9 7 6 8 11 12 8 9 11 9 8 11 12 10 9 9 11 11 10 10 10 10 9 10 11 9 6 5 6 7 5 4 6 7 6 5 4 5 5 5 5 4 3 3 4 3 1 2 2 1 2 4 5 5 4 5 4 3 5 6 7 7 7 6 6 7 9 10 10 11 12 13
Wind_Direction
23 20 18 15 13 11 9 7 4 2 359 357 356 354 352 349 349 346 345 344 345 347 346 349 351 355 360 358 360 11 54 112 140 174 205 243 215 209 184 170 162 160 154 146 154 154 159 175 168 180 194 196 227 240 178 244 263 253 275 63 64 59 71 87 114 83 96 134 151 157 175 178 148 163 162 175 190 164 161 155 127 114 88 85 119 134 138 144
20 17 15 12 11 9 7 5 3 0 358 355 353 351 349 346 345 342 342 340 341 342 341 345 348 353 357 354 354 357 46 170 202 216 225 239 208 192 175 170 166 160 154 155 165 164 167 173 170 184 201 201 175 158 247 224 255 290 25 61 57 51 68 60 73 83 106 139 149 159 176 183 156 163 168 185 181 172 176 164 159 146 121 114 134 144 143 147
16 14 12 10 9 7 5 3 1 358 356 354 351 349 347 344 342 339 337 336 337 339 337 339 344 351 352 352 347 344 15 213 223 211 205 202 184 177 172 173 167 158 158 167 172 171 174 173 176 186 205 213 133 204 258 105 295 328 9 63 65 60 79 63 74 94 88 131 150 158 170 182 156 160 173 191 180 184 199 178 177 173 153 138 145 155 151 151
12 11 9 7 6 5 4 2 359 356 354 353 350 346 344 343 339 334 333 332 332 335 334 334 341 347 350 350 340 342 276 232 200 97 174 183 175 174 170 170 164 158 164 173 172 183 186 169 178 198 226 204 119 200 43 63 322 356 22 64 72 69 86 83 92 107 124 139 152 151 164 182 162 172 186 194 192 189 203 190 188 180 163 150 151 161 159 158
9 7 6 4 3 3 1 359 357 355 353 351 348 345 343 340 336 332 329 329 329 332 332 329 336 343 349 346 336 338 271 242 106 99 181 177 175 170 167 168 161 158 171 170 168 181 171 167 183 210 244 222 139 181 91 74 289 36 58 64 70 52 80 100 109 115 138 140 149 155 167 173 160 190 203 206 211 137 149 175 175 171 160 155 157 164 165 166
5 4 3 1 0 360 358 357 355 353 352 350 347 344 341 337 334 330 327 328 326 327 329 328 333 340 348 346 339 315 283 291 97 143 181 176 176 166 166 166 159 160 173 167 168 175 168 178 193 213 248 233 108 88 96 108 274 34 81 75 62 52 83 112 121 126 143 149 157 161 160 160 170 195 201 216 226 80 71 137 157 156 158 158 160 167 171 172
3 2 360 359 358 357 356 354 352 351 350 348 347 343 338 336 331 329 328 328 327 326 328 330 332 337 346 348 333 272 264 50 101 180 175 175 171 165 167 165 164 169 178 174 176 181 175 190 209 266 270 210 70 82 112 137 244 1 85 98 79 72 93 110 122 134 151 154 147 153 162 176 189 185 179 213 220 127 98 117 157 157 154 159 164 173 178 177
360 359 357 357 355 354 353 352 351 349 348 347 345 342 338 335 329 329 331 329 331 329 327 334 335 337 346 339 284 257 232 77 103 176 171 169 167 166 164 167 176 180 187 187 185 191 190 199 226 293 301 35 35 123 139 157 190 26 80 109 114 103 108 113 127 137 147 137 121 175 189 188 193 197 204 210 205 167 139 128 164 166 159 164 171 178 182 182
357 356 355 354 352 352 351 350 349 348 347 345 343 341 338 335 331 331 333 333 332 336 338 336 338 339 339 310 270 263 168 68 139 174 167 166 166 167 165 173 188 189 197 198 201 210 202 217 265 313 321 11 4 140 178 208 164 104 97 123 135 123 125 132 140 143 153 145 151 194 206 211 201 292 240 205 190 165 156 153 165 169 169 173 175 180 185 185
354 353 352 351 350 349 349 349 348 347 346 343 342 340 338 336 333 333 333 332 330 344 352 336 346 342 323 291 260 252 84 77 168 166 168 167 162 169 176 186 190 193 207 203 213 221 222 282 346 314 302 312 324 52 195 241 80 123 130 119 126 128 141 155 150 151 163 152 170 203 213 221 203 251 230 170 162 159 161 166 165 172 177 177 176 179 185 186
351 351 350 349 347 347 348 347 347 347 344 343 342 340 340 338 335 335 331 333 336 345 356 350 356 338 307 275 255 244 82 105 160 160 167 167 164 175 187 194 190 199 212 207 222 232 246 301 334 297 292 328 314 177 184 63 96 137 142 127 133 151 156 175 177 165 182 165 176 209 230 229 208 235 242 144 147 162 168 165 166 176 177 175 175 175 182 187
350 349 348 347 346 346 346 346 346 345 344 343 342 342 342 340 338 336 333 345 355 334 348 351 356 352 300 255 250 83 81 125 163 163 168 170 174 183 191 196 197 206 217 224 240 252 267 293 304 293 325 331 309 163 147 156 153 155 170 157 144 177 187 190 195 179 206 180 166 205 239 223 211 222 218 147 154 164 168 164 168 178 171 173 175 173 180 185
349 348 347 346 345 346 346 346 345 344 344 342 342 344 343 344 345 342 344 13 1 333 337 337 355 359 274 252 161 91 98 131 159 167 172 176 184 193 200 209 209 219 235 254 275 297 292 293 291 294 310 309 323 71 129 176 197 175 197 234 162 197 195 184 194 190 212 169 159 215 281 179 196 206 174 145 165 170 170 168 170 176 170 174 175 177 182 183
349 348 347 346 345 345 346 345 345 344 343 341 341 343 345 346 348 351 359 6 2 343 333 335 349 306 258 250 97 152 171 139 158 173 176 181 193 200 206 219 223 232 245 258 278 305 308 301 282 279 282 288 348 129 180 181 209 193 201 240 214 255 145 164 184 190 199 157 166 222 297 35 158 179 163 152 172 175 177 174 173 175 172 178 178 183 186 184
350 348 347 347 346 345 346 345 344 343 342 341 340 343 345 332 322 338 351 0 2 352 349 349 340 286 257 218 122 190 179 158 180 183 179 182 191 199 205 214 227 238 246 256 269 287 302 301 276 278 279 231 222 206 209 194 205 212 235 222 210 301 130 164 182 193 201 167 179 212 271 302 123 153 160 156 172 184 189 180 176 178 176 181 182 186 190 186
349 349 348 348 348 347 346 344 344 342 341 340 338 340 338 317 290 283 315 352 353 355 350 327 338 291 277 212 129 151 170 181 196 189 187 188 194 205 200 205 223 238 241 248 257 269 281 283 272 286 295 230 229 238 249 236 207 200 249 276 299 283 234 161 175 200 211 184 192 213 260 298 114 149 163 161 173 187 196 189 181 182 180 184 187 188 191 188
347 348 349 349 349 348 347 344 344 342 340 340 337 337 333 310 270 270 297 319 329 348 326 301 346 282 267 134 144 184 180 177 169 177 191 196 206 216 187 188 210 222 225 231 241 246 242 243 255 262 257 248 253 265 263 250 236 199 231 278 276 272 297 178 174 196 207 205 212 218 242 267 215 155 165 169 179 187 197 197 185 183 185 187 192 193 192 192
345 345 348 349 350 350 349 346 343 342 341 340 337 333 324 303 274 274 285 297 311 302 244 241 244 260 208 162 181 152 134 155 152 170 189 197 210 216 202 199 202 198 209 221 221 215 208 209 243 257 250 246 251 253 246 251 287 291 284 289 266 243 249 257 155 165 193 216 234 232 239 256 245 185 177 177 183 191 198 200 190 187 189 188 195 197 194 197
341 342 344 348 349 350 351 347 343 345 343 343 344 334 315 294 275 252 244 262 267 246 255 159 202 267 122 162 215 88 143 193 202 201 194 190 198 206 211 216 214 215 223 217 197 199 212 215 228 249 249 240 238 241 255 292 316 301 300 296 292 278 245 286 53 142 189 229 242 251 258 268 268 221 193 182 183 193 197 198 196 193 192 191 197 198 197 200
339 339 339 344 348 350 352 348 346 351 351 354 351 329 294 294 264 195 218 258 250 264 293 268 233 275 291 195 2 354 214 220 222 210 186 178 182 193 203 209 217 224 232 234 210 181 216 241 233 238 244 247 249 252 278 310 304 287 287 278 280 283 267 298 33 137 192 260 265 270 277 281 287 268 201 183 184 192 196 197 196 198 195 193 197 198 198 201
339 336 336 340 346 350 351 349 351 356 3 11 5 340 22 5 319 342 340 281 249 256 270 265 263 274 275 288 350 356 248 209 211 194 171 177 187 193 192 199 219 223 221 234 236 156 211 243 244 245 253 270 289 292 288 282 273 271 275 274 272 273 271 294 350 118 186 263 289 296 292 286 287 283 212 183 190 198 200 200 196 198 198 194 199 199 196 198
339 336 336 338 343 349 350 352 358 3 23 35 40 69 66 18 335 318 313 283 255 241 256 258 261 265 266 262 255 284 282 239 216 188 166 177 192 199 191 196 221 228 215 220 229 225 228 242 247 245 253 283 271 270 261 256 262 263 263 269 267 269 280 283 284 131 191 257 302 306 301 293 287 284 230 189 198 208 207 207 201 197 198 195 198 198 193 193
340 338 336 337 341 347 349 353 8 21 42 45 55 75 52 355 328 270 246 281 275 225 231 239 243 253 255 248 215 200 231 239 228 193 169 181 198 208 211 206 221 228 217 212 223 235 236 242 252 245 209 243 248 244 247 252 254 252 254 262 261 262 274 270 136 133 209 259 303 309 298 290 287 292 249 204 206 219 213 212 208 200 200 197 197 196 192 190
341 339 337 337 339 345 348 352 20 24 38 49 62 67 19 351 333 243 228 276 274 206 202 222 239 252 256 263 184 199 220 228 235 189 165 188 198 195 221 222 222 227 219 220 226 238 248 239 69 37 205 243 253 243 241 249 251 249 249 256 264 267 272 281 293 305 259 239 249 294 293 290 302 314 265 207 206 221 214 212 212 204 202 199 196 194 192 190
341 339 338 337 339 346 347 351 27 8 356 73 67 39 358 350 337 227 239 274 253 191 166 183 208 229 210 121 178 202 226 222 228 199 169 198 201 173 215 225 224 227 220 225 229 239 251 233 135 232 242 244 253 249 242 247 255 252 245 247 260 269 274 282 289 294 281 251 182 267 294 304 319 311 280 175 193 217 208 209 212 204 200 199 196 193 190 188
340 338 339 337 340 346 345 155 12 348 304 121 38 356 344 343 323 210 238 281 248 192 146 180 194 172 161 174 171 178 216 210 204 185 176 204 212 205 220 194 209 243 228 220 229 245 251 233 201 242 247 244 248 251 246 245 255 256 255 256 256 264 269 274 281 279 280 286 159 220 286 295 300 305 308 157 199 217 206 212 215 204 200 199 196 193 187 184
339 339 337 336 343 348 349 349 345 332 250 82 354 339 338 336 286 195 240 269 247 182 131 175 187 153 148 174 173 182 211 147 147 170 185 204 199 204 229 197 187 236 224 197 227 232 229 229 233 241 245 245 244 248 239 225 245 257 270 289 264 259 263 267 274 270 275 292 247 210 265 290 288 302 311 223 234 233 216 214 214 209 206 204 200 194 189 182
339 339 335 333 340 344 345 333 331 332 11 352 336 332 336 331 202 191 261 262 234 115 141 119 102 160 169 173 198 218 311 91 180 169 164 197 195 193 225 222 212 205 182 207 229 175 192 230 238 236 241 242 241 253 240 211 238 258 268 294 280 273 275 272 271 270 276 284 268 241 241 284 283 282 240 233 257 281 256 228 220 213 206 206 204 198 191 183
339 340 334 330 334 340 341 327 310 307 344 335 330 333 334 296 196 217 262 254 201 124 151 124 132 174 167 166 205 226 247 257 242 133 144 183 211 232 240 235 235 212 186 220 243 205 146 238 264 247 246 245 245 256 247 221 238 266 271 268 269 268 268 266 264 272 275 267 272 272 249 256 281 285 258 239 263 299 291 272 241 215 204 203 204 201 193 183
338 339 334 329 334 340 326 313 264 299 333 331 332 334 313 204 209 233 226 234 227 132 138 162 162 172 178 186 199 206 213 216 87 144 166 178 196 217 270 261 243 230 205 224 246 257 240 112 342 255 251 261 267 266 255 241 243 259 262 248 243 239 242 252 255 268 270 258 269 276 264 257 275 284 281 273 291 301 293 292 261 201 197 197 201 201 192 182
336 337 334 326 324 317 306 299 230 319 327 330 331 322 243 206 230 237 217 233 292 168 156 171 161 164 194 223 214 190 202 212 150 167 178 172 187 196 195 196 212 227 227 226 237 246 236 219 227 236 238 250 264 256 238 237 239 238 240 243 244 232 224 242 239 235 259 262 266 274 264 256 262 275 287 291 296 299 301 297 284 205 190 189 195 198 189 181
334 333 329 318 308 296 287 292 318 313 320 330 321 279 220 209 218 233 209 125 213 187 162 161 162 174 214 265 245 195 197 204 183 186 193 189 192 196 203 205 193 206 226 225 226 233 230 233 236 226 218 226 244 248 220 207 219 227 230 231 237 234 224 239 237 229 253 261 256 248 251 256 266 281 285 287 290 297 334 324 310 309 204 184 190 194 183 179
333 330 324 312 301 291 288 296 302 302 313 319 291 230 222 223 214 218 205 180 155 120 113 147 174 215 263 263 223 189 196 193 179 189 197 198 205 204 208 217 215 220 236 235 229 233 229 228 224 220 214 209 224 241 222 202 203 211 222 222 226 235 235 239 240 242 253 254 223 203 245 260 270 286 288 292 308 353 14 348 347 347 215 184 186 186 176 175
331 328 322 312 303 298 299 300 295 293 301 291 245 205 215 226 218 207 209 203 142 75 145 168 249 250 247 261 215 182 207 191 175 187 188 195 214 215 207 214 221 231 251 251 249 254 251 239 201 206 207 191 207 227 240 249 226 210 221 228 230 237 243 250 250 251 260 257 170 169 231 272 285 311 309 296 344 28 10 12 37 57 163 171 174 172 171 174
332 329 321 311 305 310 318 305 289 281 277 250 222 208 209 219 217 206 216 212 185 185 176 176 263 250 226 221 193 205 234 198 180 195 200 197 211 219 213 211 209 219 241 241 234 239 255 273 217 191 171 185 208 221 228 246 252 218 212 227 235 237 241 256 272 288 300 296 242 201 247 282 286 295 295 257 207 33 34 48 69 92 126 149 160 166 172 171
334 329 316 292 285 310 313 310 287 253 253 231 212 211 212 221 225 212 216 231 223 226 216 212 231 244 233 199 171 180 210 210 186 197 211 213 222 226 226 225 203 206 222 231 231 222 243 268 188 171 188 210 229 235 214 226 241 200 203 222 231 244 253 257 257 270 285 280 269 250 266 274 271 283 291 146 152 80 71 64 82 100 125 151 159 167 169 162
330 324 307 263 282 301 295 306 267 222 241 228 214 220 220 218 230 250 51 5 277 255 250 237 215 235 246 217 167 162 174 190 189 202 208 203 222 228 226 233 212 206 215 226 242 234 247 278 197 202 222 195 205 261 218 226 240 219 209 206 186 213 255 265 260 242 242 258 257 244 270 285 290 301 82 137 147 87 77 67 88 117 147 157 150 155 156 153
315 308 287 255 312 304 290 285 206 213 233 222 221 230 226 213 197 154 12 340 285 230 236 238 213 231 247 231 157 142 178 190 178 198 214 190 198 214 217 225 216 212 216 221 232 208 230 271 244 203 222 146 153 217 214 212 229 245 292 278 193 220 225 217 239 253 248 260 263 242 269 282 278 297 321 347 18 40 56 72 103 136 149 144 135 142 146 147
297 284 244 30 335 299 243 188 190 217 224 211 218 222 223 222 197 152 331 300 273 236 230 235 231 227 231 252 321 139 189 213 176 192 219 197 181 182 200 214 209 212 215 214 222 206 201 254 241 119 132 144 163 206 210 187 203 233 270 260 230 257 264 210 211 244 257 267 274 273 276 276 285 348 339 349 16 20 25 65 101 127 133 132 136 142 145 150
294 274 134 50 13 86 150 167 197 218 215 213 222 216 209 222 214 199 229 272 274 254 244 250 229 215 210 242 284 157 209 250 218 216 219 191 198 189 187 208 210 202 209 210 218 217 196 234 245 123 146 183 181 196 223 197 182 204 225 228 219 221 265 267 223 236 266 277 281 284 281 291 36 34 3 8 18 12 14 50 110 123 127 133 138 142 147 155
285 267 120 79 49 93 146 190 206 207 215 220 228 225 211 220 221 205 195 239 272 274 307 297 260 261 273 234 240 7 266 256 231 233 227 192 216 214 169 202 212 166 181 205 211 211 199 218 242 197 185 200 149 156 275 302 246 218 212 215 220 212 220 241 227 220 244 267 279 288 287 304 64 38 9 19 4 5 27 70 125 123 129 135 134 138 151 158
261 265 100 103 15 316 226 216 198 204 222 220 230 235 214 204 230 214 196 213 239 244 266 276 264 267 270 260 291 334 285 266 239 233 235 203 223 245 132 173 199 169 175 200 199 201 211 227 240 242 244 280 64 96 280 285 257 249 240 223 220 215 219 232 239 221 212 242 269 279 281 304 79 44 5 13 354 15 46 90 123 123 128 129 127 137 151 157
258 304 105 145 289 295 248 216 190 208 223 219 240 246 212 212 223 216 204 211 224 234 234 241 251 245 243 273 286 289 301 276 252 242 249 235 241 305 65 169 202 198 202 202 184 178 190 235 234 241 253 263 71 115 165 211 223 231 234 231 229 222 224 242 281 296 238 235 250 259 266 284 89 73 4 22 19 51 75 98 115 117 118 121 128 140 146 153
295 297 198 191 254 260 244 222 201 210 215 218 234 225 217 236 232 221 214 212 215 226 231 234 241 235 237 270 267 274 301 276 256 266 274 262 258 49 45 216 215 216 214 203 172 170 177 213 222 224 218 194 172 170 168 174 206 216 195 200 221 229 233 249 285 293 264 255 263 271 278 353 97 135 83 63 66 81 85 89 100 105 110 121 130 137 143 150
288 260 214 201 218 233 249 257 255 234 212 215 227 222 216 221 228 232 236 227 221 231 239 236 235 235 237 246 253 262 265 258 265 285 286 275 285 61 157 215 235 236 228 207 125 183 192 197 198 214 218 190 186 193 162 159 184 190 161 177 204 219 224 233 244 245 248 253 264 271 286 24 121 135 98 81 94 93 89 90 92 93 104 121 131 139 149 150
286 243 202 186 193 222 249 263 272 264 226 217 222 221 220 216 209 220 233 235 224 228 247 247 229 234 235 238 252 257 252 249 249 269 289 289 300 314 172 183 242 241 210 118 177 202 212 211 207 231 254 295 7 37 38 326 207 168 163 183 200 213 218 227 244 255 266 274 258 267 294 300 241 87 59 68 92 91 94 98 97 100 114 128 134 144 153 150
275 276 235 189 188 212 225 223 228 238 241 227 217 209 217 221 213 201 209 225 226 221 238 245 233 233 226 224 245 255 253 250 243 261 281 281 302 317 315 147 233 225 147 157 205 208 219 214 210 228 247 306 352 13 18 292 263 168 179 193 194 204 211 221 243 276 295 273 268 330 338 297 314 29 33 44 70 82 97 101 101 109 122 132 140 150 155 154
248 291 350 342 279 212 212 213 218 227 225 216 221 215 217 222 219 201 194 213 227 221 225 230 229 234 234 228 246 255 252 256 250 255 271 287 324 322 317 109 121 156 161 190 199 203 235 214 194 211 224 245 311 288 267 258 242 200 202 195 186 193 202 220 248 294 299 276 301 29 2 308 350 24 32 47 62 82 96 98 101 109 124 134 141 154 153 152
254 279 269 278 275 264 294 317 234 238 230 220 225 224 223 224 219 214 209 210 217 216 220 230 227 229 236 237 245 253 249 257 261 257 300 324 328 324 324 85 106 139 172 187 182 205 257 212 172 195 205 192 213 238 242 229 211 199 203 203 199 199 206 231 256 318 297 298 357 10 308 342 31 32 45 62 69 83 92 99 106 111 124 129 136 155 153 150
316 323 324 256 253 263 284 261 226 234 225 216 224 220 222 229 221 218 219 214 213 207 211 230 235 233 236 234 235 243 249 263 277 285 311 316 317 331 343 24 63 94 191 193 181 200 244 201 170 190 191 177 198 219 218 222 225 217 210 211 214 209 208 221 208 161 245 276 340 292 285 357 56 51 71 85 87 89 94 102 106 112 125 133 145 165 165 168
314 323 327 290 263 236 238 230 222 235 221 207 216 215 216 223 223 222 220 219 225 218 206 224 236 236 237 235 237 245 251 264 273 278 293 298 298 312 310 305 328 332 302 224 193 194 217 198 170 199 205 173 184 218 210 212 235 233 224 225 232 234 220 203 186 240 283 299 297 284 296 31 70 82 95 95 96 96 98 105 113 124 136 149 167 178 177 180
280 253 247 268 271 232 227 223 210 227 235 214 212 217 220 221 222 229 225 211 221 231 233 236 240 240 235 235 241 254 266 275 280 286 294 288 282 282 277 274 281 286 279 245 207 195 220 211 177 206 221 162 170 224 206 201 230 236 225 220 224 240 244 218 213 195 303 308 303 305 357 56 75 105 101 95 97 95 96 112 130 142 153 168 184 188 182 181